Glenwood, MN

8:52 AM CDT on April 24, 2018 (GMT -0500)
Glenwood Municipal

Weather History for KGHW - July, 2012

Change the Weather History Date:

Saturday, July 28, 2012

  Actual Average Record
Temperature  
Mean Temperature 70 °F -  
Max Temperature 82 °F 82 °F 100 °F (1988)
Min Temperature 57 °F 58 °F 44 °F (2013)
Cooling Degree Days 4    
Growing Degree Days 20 (Base 50)    
Moisture  
Dew Point 60 °F    
Average Humidity 71    
Maximum Humidity 94    
Minimum Humidity 45    
Precipitation  
Precipitation 0.02 in - - ()
Sea Level Pressure  
Sea Level Pressure 30.08 in    
Wind  
Wind Speed 5 mph (SE)    
Max Wind Speed 16 mph    
Max Gust Speed 21 mph    
Visibility 10 miles    
Events Rain , Thunderstorm    
Averages and records for this station are not official NWS values.
T = Trace of Precipitation, MM = Missing Value Source: NWS Daily Summary

Daily Weather History Graph

Daily Weather History Graph

Search for Another Location

Airport or City:

Astronomy

Jul. 28, 2012 Rise Set
Actual Time 6:00 AM CDT 8:54 PM CDT
Civil Twilight 5:25 AM CDT 9:28 PM CDT
Nautical Twilight 4:41 AM CDT 10:12 PM CDT
Astronomical Twilight 3:48 AM CDT 11:04 PM CDT
Moon 5:02 PM CDT (7/28) 1:19 AM CDT (7/28)
Length of Visible Light 16h 02m
Length of Day
14h 53m
Waxing Gibbous, 76% of the Moon is Illuminated
Jul 28
Waxing Gibbous
Aug 1
Full
Aug 9
Last Quarter
Aug 17
New
Aug 24
First Quarter

Hourly Weather History & Observations

Time (CDT) Temp. Heat Index Dew Point Humidity Pressure Visibility Wind Dir Wind Speed Gust Speed Precip Events Conditions
12:14 AM 64.4 °F - 59.0 °F 83% 30.11 in 10.0 mi Calm Calm - N/A   Clear
12:34 AM 64.4 °F - 57.2 °F 77% 30.11 in 10.0 mi Calm Calm - N/A   Clear
12:54 AM 64.4 °F - 57.2 °F 77% 30.10 in 10.0 mi Calm Calm - N/A   Clear
1:34 AM 60.8 °F - 57.2 °F 88% 30.11 in 10.0 mi Calm Calm - N/A   Clear
1:54 AM 60.8 °F - 57.2 °F 88% 30.11 in 10.0 mi SE 3.5 mph - N/A   Clear
2:14 AM 60.8 °F - 57.2 °F 88% 30.12 in 10.0 mi SSE 3.5 mph - N/A   Clear
2:34 AM 60.8 °F - 57.2 °F 88% 30.12 in 10.0 mi South 4.6 mph - N/A   Clear
2:54 AM 60.8 °F - 55.4 °F 82% 30.12 in 10.0 mi SE 3.5 mph - N/A   Clear
3:14 AM 60.8 °F - 57.2 °F 88% 30.12 in 10.0 mi Calm Calm - N/A   Clear
3:34 AM 60.8 °F - 57.2 °F 88% 30.13 in 10.0 mi South 3.5 mph - N/A   Clear
3:54 AM 60.8 °F - 57.2 °F 88% 30.12 in 10.0 mi SSE 4.6 mph - N/A   Clear
4:14 AM 60.8 °F - 55.4 °F 82% 30.10 in 10.0 mi ESE 4.6 mph - N/A   Clear
4:34 AM 59.0 °F - 55.4 °F 88% 30.09 in 10.0 mi East 6.9 mph - N/A   Clear
4:54 AM 60.8 °F - 55.4 °F 82% 30.09 in 10.0 mi ESE 5.8 mph - N/A   Clear
5:14 AM 59.0 °F - 55.4 °F 88% 30.10 in 10.0 mi Calm Calm - N/A   Clear
5:34 AM 57.2 °F - 55.4 °F 94% 30.11 in 10.0 mi South 4.6 mph - N/A   Clear
5:54 AM 57.2 °F - 55.4 °F 94% 30.11 in 10.0 mi SE 3.5 mph - N/A   Clear
6:14 AM 57.2 °F - 55.4 °F 94% 30.11 in 7.0 mi SE 3.5 mph - N/A   Clear
6:34 AM 60.8 °F - 57.2 °F 88% 30.12 in 10.0 mi SSE 5.8 mph - N/A   Clear
6:54 AM 62.6 °F - 57.2 °F 82% 30.11 in 10.0 mi SE 6.9 mph - N/A   Clear
7:14 AM 64.4 °F - 59.0 °F 83% 30.11 in 10.0 mi SE 5.8 mph - N/A   Clear
7:34 AM 64.4 °F - 59.0 °F 83% 30.11 in 10.0 mi SE 4.6 mph - N/A   Clear
7:54 AM 66.2 °F - 60.8 °F 83% 30.11 in 10.0 mi SE 4.6 mph - N/A   Clear
8:14 AM 68.0 °F - 60.8 °F 78% 30.11 in 10.0 mi SE 9.2 mph - N/A   Clear
8:34 AM 66.2 °F - 60.8 °F 83% 30.11 in 10.0 mi SE 8.1 mph - N/A   Clear
8:54 AM 69.8 °F - 60.8 °F 73% 30.11 in 10.0 mi SE 9.2 mph - N/A   Clear
9:14 AM 69.8 °F - 60.8 °F 73% 30.11 in 10.0 mi SE 9.2 mph - N/A   Clear
9:34 AM 71.6 °F - 60.8 °F 69% 30.11 in 10.0 mi SE 9.2 mph - N/A   Clear
9:54 AM 73.4 °F - 60.8 °F 65% 30.10 in 10.0 mi SSE 12.7 mph 18.4 mph N/A   Clear
10:14 AM 73.4 °F - 60.8 °F 65% 30.12 in 10.0 mi SE 12.7 mph - N/A   Clear
10:34 AM 75.2 °F - 60.8 °F 61% 30.11 in 10.0 mi SE 15.0 mph - N/A   Clear
10:54 AM 75.2 °F - 60.8 °F 61% 30.11 in 10.0 mi SSE 11.5 mph - N/A   Clear
11:14 AM 75.2 °F - 59.0 °F 57% 30.11 in 10.0 mi SE 16.1 mph 19.6 mph N/A   Clear
11:34 AM 77.0 °F - 59.0 °F 54% 30.11 in 10.0 mi SSE 13.8 mph 20.7 mph N/A   Clear
11:54 AM 78.8 °F - 60.8 °F 54% 30.11 in 10.0 mi SE 16.1 mph - N/A   Clear
12:14 PM 78.8 °F - 57.2 °F 47% 30.10 in 10.0 mi SE 15.0 mph - N/A   Clear
12:34 PM 78.8 °F - 60.8 °F 54% 30.10 in 10.0 mi SE 10.4 mph 13.8 mph N/A   Clear
12:54 PM 78.8 °F - 59.0 °F 51% 30.10 in 10.0 mi SSE 13.8 mph 18.4 mph N/A   Clear
1:14 PM 80.6 °F 81.1 °F 59.0 °F 48% 30.09 in 10.0 mi SE 15.0 mph - N/A   Clear
1:34 PM 80.6 °F 81.5 °F 60.8 °F 51% 30.09 in 10.0 mi SSE 13.8 mph 20.7 mph N/A   Clear
1:54 PM 80.6 °F 81.1 °F 59.0 °F 48% 30.09 in 10.0 mi SSE 11.5 mph 18.4 mph N/A   Clear
2:14 PM 80.6 °F 80.8 °F 57.2 °F 45% 30.08 in 10.0 mi SE 11.5 mph - N/A   Clear
2:34 PM 80.6 °F 81.1 °F 59.0 °F 48% 30.07 in 10.0 mi SSE 10.4 mph - N/A   Clear
2:54 PM 80.6 °F 81.1 °F 59.0 °F 48% 30.07 in 10.0 mi SSE 9.2 mph - N/A   Clear
3:14 PM 82.4 °F 82.9 °F 60.8 °F 48% 30.06 in 10.0 mi SSE 13.8 mph - N/A   Clear
3:34 PM 82.4 °F 82.9 °F 60.8 °F 48% 30.05 in 10.0 mi SSE 11.5 mph - N/A   Clear
3:54 PM 82.4 °F 82.9 °F 60.8 °F 48% 30.05 in 10.0 mi SSE 11.5 mph - N/A   Clear
4:14 PM 82.4 °F 82.9 °F 60.8 °F 48% 30.05 in 10.0 mi SSE 10.4 mph - N/A   Clear
4:34 PM 80.6 °F 81.5 °F 60.8 °F 51% 30.05 in 10.0 mi SE 8.1 mph - N/A   Clear
4:54 PM 80.6 °F 81.5 °F 60.8 °F 51% 30.05 in 10.0 mi South 13.8 mph - N/A   Clear
5:14 PM 78.8 °F - 60.8 °F 54% 30.05 in 10.0 mi SSE 11.5 mph - N/A   Clear
5:34 PM 78.8 °F - 62.6 °F 57% 30.04 in 10.0 mi SSE 8.1 mph - N/A   Clear
5:54 PM 77.0 °F - 62.6 °F 61% 30.04 in 10.0 mi SE 8.1 mph - N/A   Clear
6:14 PM 77.0 °F - 62.6 °F 61% 30.03 in 10.0 mi SSE 9.2 mph - N/A   Clear
6:34 PM 77.0 °F - 64.4 °F 65% 30.03 in 10.0 mi SE 8.1 mph - N/A   Clear
6:54 PM 77.0 °F - 64.4 °F 65% 30.03 in 10.0 mi SE 5.8 mph - N/A   Scattered Clouds
7:14 PM 75.2 °F - 64.4 °F 69% 30.03 in 10.0 mi SE 6.9 mph - N/A   Mostly Cloudy
7:34 PM 75.2 °F - 64.4 °F 69% 30.03 in 10.0 mi SSE 3.5 mph - N/A   Overcast
7:54 PM 75.2 °F - 64.4 °F 69% 30.03 in 10.0 mi SE 5.8 mph - N/A   Mostly Cloudy
8:14 PM 73.4 °F - 64.4 °F 73% 30.03 in 10.0 mi ESE 4.6 mph - N/A Rain Rain
8:34 PM 71.6 °F - 66.2 °F 83% 30.02 in 10.0 mi ESE 4.6 mph - N/A Rain Light Rain
8:54 PM 71.6 °F - 66.2 °F 83% 30.03 in 10.0 mi Calm Calm - N/A Rain Light Rain
9:14 PM 71.6 °F - 66.2 °F 83% 30.03 in 10.0 mi SSE 4.6 mph - 0.01 in Rain Light Rain
9:34 PM 71.6 °F - 66.2 °F 83% 30.04 in 10.0 mi Calm Calm - 0.01 in Thunderstorm Scattered Clouds
9:54 PM 71.6 °F - 66.2 °F 83% 30.04 in 10.0 mi SSW 5.8 mph - 0.01 in Rain Light Rain
10:14 PM 71.6 °F - 66.2 °F 83% 30.04 in 10.0 mi Calm Calm - N/A Rain Light Rain
10:34 PM 71.6 °F - 66.2 °F 83% 30.04 in 10.0 mi Calm Calm - 0.01 in Thunderstorm Overcast
10:54 PM 71.6 °F - 66.2 °F 83% 30.04 in 10.0 mi South 4.6 mph - 0.01 in   Overcast
11:34 PM 69.8 °F - 66.2 °F 88% 30.03 in 10.0 mi SSE 5.8 mph - N/A   Scattered Clouds
11:54 PM 69.8 °F - 66.2 °F 88% 30.03 in 10.0 mi Calm Calm - N/A   Scattered Clouds